Change the Weather History Date:

Sunday, April 27, 2014

  Actual Average Record
Temperature  
Mean Temperature 40 °F -  
Max Temperature 44 °F 58 °F 77 °F (2004)
Min Temperature 35 °F 34 °F 1 °F (1999)
Degree Days  
Heating Degree Days 26    
Moisture  
Dew Point 31 °F    
Average Humidity 68    
Maximum Humidity 93    
Minimum Humidity 57    
Precipitation  
Precipitation 0.05 in - - ()
Sea Level Pressure  
Sea Level Pressure 29.80 in    
Wind  
Wind Speed 18 mph (ESE)    
Max Wind Speed 33 mph    
Max Gust Speed 45 mph    
Visibility 10 miles    
Events      
Averages and records for this station are not official NWS values.
T = Trace of Precipitation, MM = Missing Value Source: NWS Daily Summary

Daily Weather History Graph

Daily Weather History Graph

Search for Another Location

Airport or City:

Trip Planner

Search our weather history database for the weather conditions in past years. The results will help you decide how hot, cold, wet, or windy it might be!

Date:

Astronomy

Apr. 27, 2014 Rise Set
Actual Time 6:15 AM CDT 8:33 PM CDT
Civil Twilight 5:41 AM CDT 9:07 PM CDT
Nautical Twilight 4:58 AM CDT 9:50 PM CDT
Astronomical Twilight 4:10 AM CDT 10:39 PM CDT
Moon 5:25 AM CDT 7:02 PM CDT
Length of Visible Light 15h 26m
Length of Day
14h 18m
Waning Crescent, 3% of the Moon is Illuminated
Apr 27
Waning Crescent
Apr 29
New
May 6
First Quarter
May 14
Full
May 21
Last Quarter

Hourly Weather History & Observations

Time (CDT) Temp. Windchill Dew Point Humidity Pressure Visibility Wind Dir Wind Speed Gust Speed Precip Events Conditions
12:14 AM 42.8 °F 36.2 °F 30.2 °F 61% 29.92 in 10.0 mi ESE 12.7 mph 16.1 mph N/A   Clear
12:35 AM 42.8 °F 34.8 °F 30.2 °F 61% 29.92 in 10.0 mi ESE 17.3 mph - N/A   Clear
12:54 AM 42.8 °F 36.2 °F 30.2 °F 61% 29.92 in 10.0 mi ESE 12.7 mph 19.6 mph N/A   Clear
1:15 AM 41.0 °F 33.1 °F 28.4 °F 61% 29.92 in 10.0 mi ESE 15.0 mph 21.9 mph N/A   Scattered Clouds
1:35 AM 41.0 °F 34.3 °F 28.4 °F 61% 29.91 in 10.0 mi East 11.5 mph 19.6 mph N/A   Mostly Cloudy
1:54 AM 39.2 °F 32.0 °F 28.4 °F 65% 29.90 in 10.0 mi East 11.5 mph 19.6 mph N/A   Scattered Clouds
2:15 AM 39.2 °F 30.5 °F 28.4 °F 65% 29.89 in 10.0 mi ESE 16.1 mph 24.2 mph N/A   Clear
2:34 AM 39.2 °F 30.2 °F 26.6 °F 61% 29.88 in 10.0 mi ESE 17.3 mph 23.0 mph N/A   Clear
2:54 AM 39.2 °F 30.8 °F 26.6 °F 61% 29.88 in 10.0 mi East 15.0 mph 19.6 mph N/A   Scattered Clouds
3:15 AM 39.2 °F 31.2 °F 26.6 °F 61% 29.88 in 10.0 mi East 13.8 mph 19.6 mph N/A   Mostly Cloudy
3:34 AM 39.2 °F 31.2 °F 26.6 °F 61% 29.87 in 10.0 mi ESE 13.8 mph 23.0 mph N/A   Overcast
3:54 AM 37.4 °F 28.5 °F 28.4 °F 70% 29.86 in 7.0 mi ESE 15.0 mph 20.7 mph N/A   Overcast
4:15 AM 37.4 °F 28.2 °F 28.4 °F 70% 29.83 in 10.0 mi ESE 16.1 mph 21.9 mph N/A   Overcast
4:34 AM 37.4 °F 28.2 °F 28.4 °F 70% 29.84 in 10.0 mi ESE 16.1 mph 24.2 mph N/A   Mostly Cloudy
4:55 AM 37.4 °F 27.8 °F 28.4 °F 70% 29.85 in 10.0 mi ESE 17.3 mph 24.2 mph N/A   Mostly Cloudy
5:15 AM 39.2 °F 31.6 °F 28.4 °F 65% 29.84 in 10.0 mi ESE 12.7 mph 24.2 mph N/A   Overcast
5:34 AM 39.2 °F 30.2 °F 28.4 °F 65% 29.84 in 10.0 mi ESE 17.3 mph 21.9 mph N/A   Overcast
5:55 AM 39.2 °F 30.2 °F 28.4 °F 65% 29.86 in 10.0 mi ESE 17.3 mph 26.5 mph N/A   Overcast
6:15 AM 39.2 °F 29.6 °F 28.4 °F 65% 29.87 in 10.0 mi ESE 19.6 mph 27.6 mph N/A   Overcast
6:34 AM 37.4 °F 26.9 °F 28.4 °F 70% 29.87 in 10.0 mi ESE 20.7 mph 27.6 mph N/A   Overcast
6:55 AM 37.4 °F 28.5 °F 28.4 °F 70% 29.88 in 10.0 mi ESE 15.0 mph 27.6 mph N/A   Overcast
7:15 AM 37.4 °F 27.2 °F 28.4 °F 70% 29.89 in 10.0 mi ESE 19.6 mph 23.0 mph N/A   Overcast
7:34 AM 37.4 °F 27.8 °F 30.2 °F 75% 29.88 in 10.0 mi ESE 17.3 mph 23.0 mph N/A   Overcast
7:55 AM 37.4 °F 27.8 °F 30.2 °F 75% 29.88 in 10.0 mi ESE 17.3 mph 25.3 mph N/A   Overcast
8:14 AM 35.6 °F 25.5 °F 30.2 °F 81% 29.87 in 10.0 mi ESE 17.3 mph 23.0 mph N/A   Overcast
8:34 AM 37.4 °F 27.8 °F 30.2 °F 75% 29.85 in 10.0 mi East 17.3 mph 27.6 mph N/A   Overcast
8:55 AM 37.4 °F 27.5 °F 32.0 °F 81% 29.84 in 10.0 mi ESE 18.4 mph 26.5 mph N/A   Mostly Cloudy
9:14 AM 37.4 °F 26.4 °F 30.2 °F 75% 29.82 in 10.0 mi ESE 23.0 mph 29.9 mph N/A   Mostly Cloudy
9:34 AM 37.4 °F 26.6 °F 30.2 °F 75% 29.80 in 10.0 mi East 21.9 mph 28.8 mph N/A   Scattered Clouds
9:55 AM 37.4 °F 26.4 °F 32.0 °F 81% 29.80 in 10.0 mi ESE 23.0 mph 31.1 mph N/A   Scattered Clouds
10:14 AM 37.4 °F 25.9 °F 30.2 °F 75% 29.80 in 10.0 mi ESE 25.3 mph 34.5 mph N/A   Mostly Cloudy
10:35 AM 39.2 °F 28.7 °F 30.2 °F 70% 29.79 in 10.0 mi ESE 23.0 mph 36.8 mph N/A   Overcast
10:55 AM 39.2 °F 28.3 °F 28.4 °F 65% 29.79 in 10.0 mi ESE 25.3 mph 32.2 mph N/A   Mostly Cloudy
11:14 AM 41.0 °F 32.2 °F 28.4 °F 61% 29.80 in 10.0 mi ESE 18.4 mph 33.4 mph N/A   Scattered Clouds
11:35 AM 41.0 °F 32.2 °F 28.4 °F 61% 29.80 in 10.0 mi East 18.4 mph 33.4 mph N/A   Mostly Cloudy
11:54 AM 41.0 °F 32.5 °F 28.4 °F 61% 29.79 in 10.0 mi ESE 17.3 mph 32.2 mph N/A   Overcast
12:15 PM 41.0 °F 31.1 °F 28.4 °F 61% 29.78 in 10.0 mi East 23.0 mph 35.7 mph N/A   Overcast
12:35 PM 42.8 °F 32.9 °F 28.4 °F 57% 29.76 in 10.0 mi ESE 26.5 mph 35.7 mph N/A   Overcast
12:54 PM 42.8 °F 31.8 °F 28.4 °F 57% 29.77 in 10.0 mi ESE 33.4 mph 40.3 mph N/A   Overcast
1:14 PM 42.8 °F 34.0 °F 30.2 °F 61% 29.77 in 10.0 mi ESE 20.7 mph 36.8 mph N/A   Overcast
1:35 PM 42.8 °F 33.8 °F 28.4 °F 57% 29.79 in 10.0 mi ESE 21.9 mph 36.8 mph N/A   Overcast
1:54 PM 44.6 °F 34.9 °F 30.2 °F 57% 29.77 in 10.0 mi ESE 28.8 mph 34.5 mph N/A   Overcast
2:14 PM 44.6 °F 35.3 °F 30.2 °F 57% 29.77 in 10.0 mi ESE 26.5 mph 36.8 mph N/A   Overcast
2:35 PM 44.6 °F 35.9 °F 32.0 °F 61% 29.76 in 10.0 mi ESE 23.0 mph 35.7 mph N/A   Mostly Cloudy
3:15 PM 44.6 °F 35.1 °F 32.0 °F 61% 29.74 in 10.0 mi ESE 27.6 mph 36.8 mph N/A   Overcast
3:35 PM 44.6 °F 34.6 °F 32.0 °F 61% 29.76 in 10.0 mi ESE 31.1 mph 38.0 mph N/A   Overcast
3:54 PM 44.6 °F 34.9 °F 32.0 °F 61% 29.74 in 10.0 mi ESE 28.8 mph 38.0 mph N/A   Overcast
4:15 PM 44.6 °F 35.9 °F 32.0 °F 61% 29.73 in 10.0 mi ESE 23.0 mph 34.5 mph N/A   Overcast
4:34 PM 44.6 °F 34.6 °F 32.0 °F 61% 29.73 in 10.0 mi ESE 31.1 mph 44.9 mph N/A   Overcast
4:55 PM 44.6 °F 34.9 °F 32.0 °F 61% 29.73 in 10.0 mi ESE 28.8 mph 40.3 mph N/A   Overcast
5:15 PM 44.6 °F 34.4 °F 33.8 °F 66% 29.73 in 10.0 mi ESE 32.2 mph 43.7 mph N/A   Overcast
5:34 PM 44.6 °F 35.1 °F 32.0 °F 61% 29.73 in 10.0 mi ESE 27.6 mph 42.6 mph N/A   Overcast
5:55 PM 44.6 °F 36.1 °F 32.0 °F 61% 29.73 in 10.0 mi ESE 21.9 mph 36.8 mph N/A   Overcast
6:14 PM 44.6 °F 35.5 °F 32.0 °F 61% 29.73 in 10.0 mi ESE 25.3 mph 36.8 mph N/A   Overcast
6:34 PM 44.6 °F 35.7 °F 32.0 °F 61% 29.71 in 10.0 mi ESE 24.2 mph 36.8 mph N/A   Overcast
6:55 PM 44.6 °F 36.4 °F 32.0 °F 61% 29.72 in 10.0 mi ESE 20.7 mph 34.5 mph N/A   Overcast
7:14 PM 44.6 °F 35.5 °F 32.0 °F 61% 29.73 in 10.0 mi ESE 25.3 mph 33.4 mph N/A   Overcast
7:35 PM 44.6 °F 35.5 °F 32.0 °F 61% 29.74 in 10.0 mi ESE 25.3 mph 31.1 mph N/A   Overcast
7:54 PM 44.6 °F 35.7 °F 32.0 °F 61% 29.76 in 10.0 mi ESE 24.2 mph 33.4 mph N/A   Overcast
8:14 PM 42.8 °F 33.5 °F 33.8 °F 70% 29.76 in 7.0 mi ESE 23.0 mph 31.1 mph N/A   Drizzle
8:35 PM 39.2 °F 29.6 °F 33.8 °F 81% 29.75 in 7.0 mi ESE 19.6 mph 25.3 mph N/A   Light Drizzle
8:54 PM 39.2 °F 28.0 °F 33.8 °F 81% 29.76 in 7.0 mi ESE 26.5 mph 34.5 mph N/A   Overcast
9:15 PM 39.2 °F 30.5 °F 33.8 °F 81% 29.76 in 10.0 mi ESE 16.1 mph 32.2 mph N/A   Overcast
9:34 PM 39.2 °F 29.3 °F 33.8 °F 81% 29.77 in 10.0 mi ESE 20.7 mph 33.4 mph N/A   Overcast
9:54 PM 41.0 °F 32.5 °F 33.8 °F 76% 29.76 in 10.0 mi ESE 17.3 mph 26.5 mph N/A   Overcast
10:15 PM 41.0 °F 32.2 °F 32.0 °F 70% 29.75 in 10.0 mi ESE 18.4 mph 27.6 mph N/A   Overcast
10:34 PM 41.0 °F 31.4 °F 33.8 °F 76% 29.75 in 10.0 mi ESE 21.9 mph 33.4 mph N/A   Overcast
10:54 PM 41.0 °F 31.4 °F 33.8 °F 76% 29.76 in 10.0 mi ESE 21.9 mph 31.1 mph N/A   Overcast
11:15 PM 37.4 °F 26.4 °F 35.6 °F 93% 29.76 in 5.0 mi ESE 23.0 mph 29.9 mph 0.03 in   Overcast
11:34 PM 37.4 °F 28.2 °F 35.6 °F 93% 29.76 in 7.0 mi ESE 16.1 mph 32.2 mph 0.05 in   Overcast
11:55 PM 37.4 °F 25.6 °F 35.6 °F 93% 29.75 in 4.0 mi ESE 26.5 mph 38.0 mph 0.03 in   Overcast